Location: Unspecified
(47.6101°N, 0.0000°E)
Time: 12:01:24
(UTC+00:00)

Cosmos 1048 - Visible Passes

Search period start: 04 April 2026 00:00
Search period end: 14 April 2026 00:00
Orbit: 762 x 787 km, 74.0° (Epoch: 29 March)

Date Brightness Start Highest point End Pass type
(mag) Time Alt. Az. Time Alt. Az. Time Alt. Az.
4 Apr 9.0 02:57:59 10° NNE 02:58:28 10° NE 02:58:57 10° NE visible
4 Apr 6.8 04:36:58 10° NNW 04:42:08 46° ENE 04:47:13 10° SE visible
4 Apr 5.5 19:18:24 10° S 19:23:41 69° ESE 19:29:02 10° NNE visible
4 Apr 8.1 21:02:21 10° W 21:06:26 22° NW 21:10:34 10° N visible
5 Apr 7.5 04:01:59 10° N 04:06:44 31° NE 04:11:26 10° ESE visible
5 Apr 7.5 20:26:13 10° WSW 20:30:57 31° NW 20:35:42 10° N visible
6 Apr 8.1 03:27:07 10° N 03:31:14 22° NE 03:35:19 10° ESE visible
6 Apr 6.8 19:50:25 10° SW 19:55:33 46° WNW 20:00:43 10° NNE visible
6 Apr 9.0 21:39:01 10° NW 21:39:13 10° NW 21:39:25 10° NW visible
7 Apr 8.6 02:52:28 10° N 02:55:39 16° NE 02:58:48 10° E visible
7 Apr 5.7 04:33:25 10° NNW 04:38:47 79° ENE 04:44:04 10° SSE visible
7 Apr 6.0 19:14:55 10° SSW 19:20:14 70° WNW 19:25:36 10° NNE visible
7 Apr 8.7 21:00:39 10° WNW 21:03:29 14° NW 21:06:20 10° NNW visible
8 Apr 8.9 02:18:27 10° NNE 02:19:57 11° NE 02:21:26 10° NE visible
8 Apr 6.5 03:58:17 10° NNW 04:03:30 52° ENE 04:08:39 10° SE visible
8 Apr 8.4 20:23:58 10° W 20:27:52 20° NW 20:31:47 10° N visible
9 Apr 7.3 03:23:16 10° N 03:28:08 35° ENE 03:32:56 10° ESE visible
9 Apr 7.8 19:47:45 10° WSW 19:52:21 28° NW 19:56:57 10° N visible
10 Apr 7.9 02:48:21 10° N 02:52:40 24° NE 02:56:54 10° ESE visible
10 Apr 5.6 04:30:03 10° NNW 04:35:17 60° WSW 04:40:27 10° S visible
10 Apr 7.1 19:11:52 10° SW 19:16:55 41° WNW 19:22:00 10° N visible
11 Apr 8.4 02:13:38 10° N 02:17:05 17° NE 02:20:30 10° E visible
11 Apr 5.5 03:54:46 10° NNW 04:00:07 88° ENE 04:05:24 10° SSE visible
11 Apr 8.7 20:22:30 10° WNW 20:24:57 13° NW 20:27:24 10° NNW visible
12 Apr 8.6 01:39:22 10° NNE 01:41:24 12° NE 01:43:28 10° ENE visible
12 Apr 6.2 03:19:36 10° NNW 03:24:52 57° ENE 03:30:03 10° SE visible
12 Apr 8.5 19:45:38 10° W 19:49:17 18° NW 19:52:59 10° N visible
13 Apr 7.0 02:44:32 10° N 02:49:31 38° ENE 02:54:25 10° SE visible
13 Apr 6.1 04:26:54 10° NW 04:31:39 34° WSW 04:36:20 10° SSW visible
13 Apr 8.1 19:09:19 10° WSW 19:13:44 26° NW 19:18:13 10° N visible
